Terminal Aerodrome Forecast
Issued by NWS

Home | Current Version | Previous Version | Text Only | Print | Product List | Glossary On
Versions: 1 2 3 4 5 6 7 8 9 10 11 12 13 14 15 16 17 18 19 20 21 22 23 24 25 26 27 28 29 30 31 32 33 34 35 36 37 38 39 40 41 42 43 44 45 46 47 48 49 50
000
FTUS45 KBOU 250523
TAFBJC
TAF
KBJC 250523Z 2506/2606 36007KT 4SM -DZ BR OVC005
      TEMPO 2506/2510 2SM -DZ BR BKN002
     FM251000 01006KT 2SM BR OVC002
      TEMPO 2510/2514 3/4SM -DZ BR OVC001
     FM251500 05005KT 4SM BR BKN005 OVC012
     FM251800 07007KT P6SM BKN015
     FM252300 10006KT P6SM VCSH BKN020=

USA.gov is the U.S. government's official web portal to all federal, state and local government web resources and services.